Weather Roundup
Issued by NWS

Home | Current Version | Previous Version | Text Only | Print | Product List | Glossary On
Versions: 1 2 3 4 5 6 7 8 9 10 11 12 13 14 15 16 17 18 19 20 21 22 23 24 25 26 27 28 29 30 31 32 33 34 35 36 37 38 39 40 41 42 43 44 45 46 47 48 49 50
000
NZUS93 KARX 250610
HRRWXR

CURRENT HOURLY OBSERVATIONS ACROSS
MUCH OF THE UPPER MISSISSIPPI VALLEY
NATIONAL WEATHER SERVICE LA CROSSE WI
100 AM CDT MON JUL 25 2016


...SOUTHEAST MINNESOTA...


CITY           SKY/WX    TMP DP  RH WIND       PRES   REMARKS
ROCHESTER      CLEAR     65  63  93 W6        30.02R
ROCHESTER/MAYO FAIR      70  64  83 W9        30.00F
WINONA         CLEAR     70  63  78 NW7       29.97S
AUSTIN         CLEAR     66  63  88 W5        30.02S
ALBERT LEA     CLEAR     66  64  94 W3        30.03S
DODGE CENTER   PTCLDY    66  63  88 W9        30.02S
PRESTON        CLEAR     65  61  88 W7        30.02R
OWATONNA       CLEAR     64  63  94 SW3       30.02S
FARIBAULT      CLEAR     66  64  94 W3        30.01S
$$

...ELSEWHERE IN MINNESOTA...


CITY           SKY/WX    TMP DP  RH WIND       PRES   REMARKS
MINNEAPOLIS    CLEAR     72  60  66 W8        29.99R
INTNL FALLS    CLEAR     61  57  87 W5        29.91R
DULUTH         CLEAR     66  60  81 W9        29.92R
RED WING       CLEAR     66  64  94 CALM      29.97R
REDWOOD FALLS  CLEAR     67  62  84 W6        30.02S
MANKATO        CLEAR     66  61  82 W6        30.02S
WORTHINGTON    CLEAR     65  62  90 SW8       30.09R
FAIRMONT       CLEAR     66  61  82 W7        30.03S
$$

...SOUTHWEST WISCONSIN...


CITY           SKY/WX    TMP DP  RH WIND       PRES   REMARKS
LA CROSSE      CLEAR     71  66  84 CALM      29.97R
PRAIRIE DU CHI CLOUDY    72  64  77 CALM      29.99R
BOSCOBEL       CLOUDY    70  67  90 CALM      29.99R
LONE ROCK      CLOUDY    70  67  90 W3        29.99R
PLATTEVILLE    MOCLDY    68  68 100 W3        30.01R
FORT MC COY    CLEAR     64  63  97 CALM      29.98R
CAMP DOUGLAS   CLOUDY    65  64  93 W6        29.97R
MAUSTON-NEW LI CLOUDY    70  66  86 W5        29.96R
VIROQUA        FAIR      67  65  93 W3        30.00R
WIS DELLS      PTCLDY    69  64  83 W3        29.97R
$$

...ELSEWHERE IN WISCONSIN...


CITY           SKY/WX    TMP DP  RH WIND       PRES   REMARKS
MILWAUKEE      CLOUDY    81  66  60 W9        29.92R
MADISON        CLOUDY    74  66  76 VRB6      29.95R
GREEN BAY      CLOUDY    70  67  90 W7        29.90R
EAU CLAIRE     CLEAR     66  63  90 SW6       29.95R
BLACK RVR FLS  FAIR      62  62 100 CALM      29.96R
MEDFORD        CLEAR     64  64 100 W5        29.95S
WAUSAU         CLEAR     67  62  84 NW7       29.92R
WIS RAPIDS     CLEAR     67  61  81 W5        29.96R
MARSHFIELD     CLEAR     66  61  84 W5        29.95R
RICE LAKE      CLEAR     66  61  85 W6        29.97S
$$

...NORTHEAST IOWA...


CITY           SKY/WX    TMP DP  RH WIND       PRES   REMARKS
WATERLOO       CLOUDY    68  64  87 CALM      30.01R
DUBUQUE        CLOUDY    71  65  81 N7        30.02R
DECORAH        PTCLDY    68  66  94 CALM      30.00R
MASON CITY     CLEAR     66  64  93 W9        30.05S
CHARLES CITY   PTCLDY    66  66 100 NW6       30.03R
OELWEIN        CLOUDY    68  66  94 NW7       30.03R
$$

...ELSEWHERE IN IOWA...


CITY           SKY/WX    TMP DP  RH WIND       PRES   REMARKS
DES MOINES     PTCLDY    74  64  71 N6        30.04R
IOWA CITY      CLOUDY    75  66  73 N10       30.02R
FORT DODGE     CLEAR     66  63  88 NW3       30.06R
MARSHALLTOWN   CLEAR     66  65  96 CALM      30.04R
CEDAR RAPIDS   CLOUDY    67  67 100 NW6       30.01R
$$

...NORTHERN ILLINOIS...


CITY           SKY/WX    TMP DP  RH WIND       PRES   REMARKS
CHICAGO-OHARE  CLOUDY    75  68  78 SW8       29.96R
CHICAGO-MIDWAY CLOUDY    75  65  70 SW10      29.96R
MOLINE         CLOUDY    78  66  66 NW7       29.98R
ROCKFORD       CLOUDY    77  68  73 CALM      29.98R
PEORIA         LGT RAIN  76  74  93 W7        29.99R
$$

NOTE: "FAIR" INDICATES FEW OR NO CLOUDS BELOW 12,000 FEET WITH NO
SIGNIFICANT WEATHER AND/OR OBSTRUCTIONS TO VISIBILITY. WIND
SPEEDS ARE IN MILES-PER-HOUR.




USA.gov is the U.S. government's official web portal to all federal, state and local government web resources and services.